Location: ??????????
(48.4699°N, 37.9573°E)
Time: 12:56:23
(UTC+00:00)

Cosmos 1777 Rocket - Pass Details

Date: 20 January 2021
Orbit: 758 x 776 km, 74.0° (Epoch: 26 February)

Event Time Altitude Azimuth Distance (km) Brightness Sun altitude
Rises 15:32:32 0° 198° (SSW) 3,225 7.7 -13.7°
Reaches altitude 10° 15:34:53 10° 197° (SSW) 2,305 6.9 -14.1°
Maximum altitude 15:40:07 81° 112° (ESE) 788 3.9 -14.9°
Drops below altitude 10° 15:45:26 10° 25° (NNE) 2,332 6.2 -15.8°
Enters shadow 15:45:39 - 25° (NNE) 2,420 6.2 -15.8°
